Simultaneous Nadir Overpasses (SNOs) Predictions

Prediction of SNOs between GOES-17 and METOP-B Satellite Orbit:

Table of predicted SNOs for the next 14.0 days since TLE Epoch: 1/10/2025
Index Date Time (GOES-17) GOES-17 Lat,Lon METOP-B Lat,Lon Distance(km) Time Diff (sec)
1 01/11/2025 04:04:01 -0.00,-104.66 0.37,-102.89 200.77 80
2 01/12/2025 16:23:00 0.00,-104.69 0.65,-107.50 320.94 80
3 01/13/2025 16:05:06 0.01,-104.70 -0.45,-102.54 245.66 80
4 01/15/2025 04:24:14 -0.01,-104.68 -0.59,-107.18 285.60 80
5 01/16/2025 04:01:00 -0.02,-104.68 0.52,-102.22 280.75 80
6 01/17/2025 16:19:59 0.03,-104.72 0.49,-106.83 240.58 80
7 01/18/2025 16:02:04 0.03,-104.73 -0.62,-101.86 326.61 80
8 01/20/2025 04:21:12 -0.03,-104.72 -0.45,-106.50 203.39 80
9 01/21/2025 03:57:57 -0.03,-104.72 0.67,-101.54 363.20 80
10 01/22/2025 16:16:57 0.03,-104.75 0.33,-106.15 158.75 80
11 01/23/2025 15:59:01 0.03,-104.76 -0.73,-101.17 408.30 80
